Regional Weather Roundup
Issued by NWS Newport/Morehead, NC

Current Version | Previous Version | Text Only | Print | Product List | Glossary On
Versions: 1 2 3 4 5 6 7 8 9 10 11 12 13 14 15 16 17 18 19 20 21 22 23 24 25 26 27 28 29 30 31 32 33 34 35 36 37 38 39 40 41 42 43 44 45 46 47 48 49 50
000
ASUS42 KMHX 292025
RWRMHX
WEATHER ROUNDUP FOR EASTERN NORTH CAROLINA
NATIONAL WEATHER SERVICE NEWPORT/MOREHEAD CITY NC
400 PM EDT MON AUG 29 2016

NOTE: "FAIR" INDICATES FEW OR NO CLOUDS BELOW 12,000 FEET
WITH NO SIGNIFICANT WEATHER AND/OR OBSTRUCTIONS TO VISIBILITY

NCZ015>017-031-032-045>047-102-103-292100-
NORTH COAST

CITY           SKY/WX    TMP DP  RH WIND       PRES   REMARKS
EDENTON        MOSUNNY   86  72  61 NE7       30.07F
ELIZABETH CITY MOSUNNY   84  73  69 NE14      30.08S
KITTY HAWK     CLEAR     86  76  70 NE8       30.06F
MANTEO         SUNNY     83  72  70 NE17      30.07F

$$

NCZ045>047-081-094-103-104-292100-
CENTRAL COAST

CITY           SKY/WX    TMP DP  RH WIND       PRES   REMARKS
FRISCO         CLOUDY    86  76  71 NE9G21    30.04F

$$

NCZ095-097-098-100-101-292100-
SOUTHERN COAST

CITY           SKY/WX    TMP DP  RH WIND       PRES   REMARKS
BEAUFORT       PTSUNNY   86  74  67 NE9       30.03F
CEDAR ISLAND   NOT AVBL
JACKSONVILLE   CLOUDY    81  74  79 NW5       30.04F THUNDER
PINEY ISLAND   NOT AVBL
WILMINGTON     SUNNY     89  73  59 VRB6      30.04F


$$

NCZ011>013-027>030-043-044-078>080-089-090>093-098-292100-
COASTAL PLAIN

CITY           SKY/WX    TMP DP  RH WIND       PRES   REMARKS
AHOSKIE        CLOUDY    87  69  54 NE6       30.06F
CLINTON        MOSUNNY   89  74  62 N5        30.06F
ELIZABETHTOWN  PTSUNNY   87  67  50 NW5       30.05F
GOLDSBORO      MOSUNNY   91  72  53 VRB6      30.04F
GREENVILLE     PTSUNNY   88  73  62 NE13      30.07S
HAVELOCK       PTSUNNY   84  73  69 NW12      30.06S THUNDER
KENANSVILLE    SUNNY     88  73  62 CALM      30.05F
KINSTON        NOT AVBL
NEW BERN       TSTM      75  72  90 NW9       30.08R FOG
RICHLANDS      TSTM      79  75  89 CALM      30.06R FOG
ROCKY MOUNT    MOSUNNY   90  71  53 NE7       30.06F
WASHINGTON     MOSUNNY   83  75  75 N8        30.05F
WHITEVILLE     CLOUDY    83  72  67 NE3       30.06S

$$

AMZ130-135-150-152-154-156-158-170-250-252-270-ANZ085-086-088-633-658-670-292100-
MARINE OBSERVATIONS

STATION/POSITION TIME  TEMP    WIND        PRES    WAVE   SWELL
                       AIR SEA DIR/SP/G            HT/PER HT/PER
                 (UTC) (F)     (DEG/KT/KT) (MB)    (FT/S) (FT/S)
CHESAPEAKE LIGHT NOT AVBL
64 E VA BEACH    1950   79 81   40/ 14/ 16 1017.8    4/13   3/13
DUCK             2000   80 79   30/ 14/ 16 1017.9
2 E DUCK         1911      81                N/A     5/ 8   2/13
OREGON INLET     2000   82 81   20/ 12/ 17 1018.0
13E OREGON INLT  2000      81                N/A     5/ 8   3/ 8
HATTERAS CG      2000   82 83   30/ 14/ 19 1016.9
DIAMOND BUOY     1950   82 84   30/ 19/ 25 1016.3    6/ 8   5/ 8
CAPE LOOKOUT     2000   83      40/ 15/ 17 1016.6
BEAUFORT LAB     2000   86 82   70/  5/ 13 1016.3
30 SE NEW RVR IN 2008   84 85   60/ 14/ 19 1016.7
30 SE NEW RVR IN 1925      84                N/A     4/ 8   2/13
27 SE WRIGHTSVLE 2008   83 84   30/  6/ 10 1017.0
5 SE WRIGHTSVLE  2008   84 84   90/ 12/ 17 1017.9
225 S CAPE HAT   1950   83 85  280/ 10/ 12 1015.5    4/13   5/13
41 SE CHARLESTON 1950   84 85   50/ 10/ 12 1016.5    3/13   3/13

$$



USA.gov is the U.S. government's official web portal to all federal, state and local government web resources and services.